Overview Statistics Trail Chart Weather Telemetry Raw packets
 

This is the latest recevied weather packets stored in our database for station/object EA3AGY-13. If no packets are shown the sender has not sent any weather packets the latest 10 day(s).

<< 1 2 3 4 5 6 >>
Time Temp. Humidity Pressure Rain* Wind** Luminosity Snow
1788509780 22.22° C 28% 1023.6 hPa 0 mm - - -
1788507971 21.67° C 27% 1023.6 hPa 0 mm - - -
1788503759 20.56° C 28% 1023.5 hPa 0 mm - - -
1788503155 19.44° C 40% 1023.4 hPa 0 mm - - -
1788502551 19.44° C 35% 1023.4 hPa 0 mm - - -
1788501948 19.44° C 36% 1023.3 hPa 0 mm - - -
1788498334 15° C 43% 1023.6 hPa 0 mm - - -
1788496527 14.44° C 42% 1023.7 hPa 0 mm - - -
1788492912 15° C 40% 1024 hPa 0 mm - - -
1788492310 14.44° C 40% 1024.1 hPa 0 mm - - -
1788488696 16.11° C 40% 1024.1 hPa 0 mm - - -
1788488093 16.11° C 39% 1024.2 hPa 0 mm - - -
1788486889 16.67° C 39% 1024.4 hPa 0 mm - - -
1788486286 16.67° C 40% 1024.5 hPa 0 mm - - -
1788485684 17.22° C 39% 1024.6 hPa 0 mm - - -
1788485082 17.22° C 38% 1024.5 hPa 0 mm - - -
1788483877 17.22° C 38% 1024.5 hPa 0 mm - - -
1788483274 17.22° C 37% 1024.7 hPa 0 mm - - -
1788482070 16.11° C 35% 1025 hPa 0 mm - - -
1788479660 16.11° C 34% 1025.2 hPa 0 mm - - -
1788478456 15.56° C 36% 1025.3 hPa 0 mm - - -
1788477854 15.56° C 36% 1025.4 hPa 0 mm - - -
1788477251 15° C 37% 1025.4 hPa 0 mm - - -
1788476649 16.11° C 39% 1025.3 hPa 0 mm - - -
1788475444 16.11° C 44% 1025.5 hPa 0 mm - - -

* Rain since midnight (hover to see other rain measurements)
** Current wind speed in m/s (hover to see current wind gust speed)